Regional Weather Roundup
Issued by NWS San Diego, CA

Home | Current Version | Previous Version | Text Only | Print | Product List | Glossary On
Versions: 1 2 3 4 5 6 7 8 9 10 11 12 13 14 15 16 17 18 19 20 21 22 23 24 25 26 27 28 29 30 31 32 33 34 35 36 37 38 39 40 41 42 43 44 45 46 47 48 49 50
000
ASUS46 KSGX 250411
RWRSGX

SAN DIEGO HOURLY WEATHER ROUNDUP
NATIONAL WEATHER SERVICE SAN DIEGO CA
900 PM PDT SAT JUN 24 2017

NOTE: "FAIR" INDICATES FEW OR NO CLOUDS BELOW 12,000 FEET WITH NO
SIGNIFICANT WEATHER AND/OR OBSTRUCTIONS TO VISIBILITY.

CAZ042-043-060-061-PZZ750-775-250500-

GREATER SAN DIEGO AREA

CITY           SKY/WX    TMP DP  RH WIND       PRES   REMARKS
SAN DIEGO AP   PTCLDY    66  61  84 NW8       29.88R
NATIONAL CITY    N/A     65  61  86 CALM      29.87R
CHULA VISTA      N/A     65  61  89 W2        29.79R
IMPERIAL BEACH CLOUDY    64  59  83 NW6       29.88R
BROWN FIELD    PTCLDY    62  60  93 W7        29.87R
MIRAMAR MCAS   PTCLDY    64  58  80 NW3       29.86R
MONTGOMERY FLD CLEAR     66  60  81 NW5       29.86S
GILLESPIE FLD  CLEAR     68  59  73 VRB7      29.85

$$

NORTH SAN DIEGO COUNTY

CITY           SKY/WX    TMP DP  RH WIND       PRES   REMARKS
CAMP PENDLETON CLEAR     63  61  93 SW3       29.85R
OCEANSIDE AP   CLOUDY    65  62  90 W7        29.85S
OCEANSIDE HBR    N/A     65  62  90 W3        29.88S
VISTA            N/A     64  59  83 CALM      29.83R
CARLSBAD       MOCLDY    64  61  90 CALM      29.86R
DEL MAR          N/A     64  61  91 CALM      29.88R
LA JOLLA SCRIP   N/A     62  61  96 NW3       29.86R
FALLBROOK        N/A     67  64  90 CALM      29.86R
ESCONDIDO        N/A     70  61  73 W6        29.86R
SAN MARCOS       N/A     65  59  80 CALM      29.87R
POWAY            N/A     66  59  78 CALM      29.86R

$$

EAST SAN DIEGO COUNTY

CITY           SKY/WX    TMP DP  RH WIND       PRES   REMARKS
RAMONA         CLEAR     70  61  73 NW7       29.88R
SANTEE LAKES     N/A     67  60  78 CALM      29.83R
LA MESA          N/A     65  59  81 NW1       29.78R
JAMUL            N/A     67  60  78 CALM      29.84R
DESCANSO N       N/A     79  48  33 E2        29.73S
CAMPO            N/A     77  56  48 S5        29.91R

$$

ORANGE COUNTY AND THE LOS ANGELES BASIN

CITY           SKY/WX    TMP DP  RH WIND       PRES   REMARKS
JOHN WAYNE AP  CLEAR     67  61  81 SW5       29.85R
LAGUNA BEACH     N/A    N/A N/A N/A CALM      29.80S
LAKE FOREST FR   N/A     68  57  68 CALM      29.74R
HUNTINGTON BCH   N/A     65  62  89 W3        29.86R
LOS ALAMITOS   FAIR      68  58  71 W6        29.84R
FULLERTON      CLEAR     72  60  66 NW6       29.84R
LONG BEACH     CLEAR     68  58  70 NW8       29.85R
L.A. AP        PTCLDY    65  62  90 SW9       29.86R
L.A. DOWNTOWN  CLEAR     68  60  75 W5        29.85R

$$

THE INLAND EMPIRE

CITY           SKY/WX    TMP DP  RH WIND       PRES   REMARKS
CORONA         CLEAR     74  60  61 W6        29.85R
CHINO          CLEAR     76  59  55 W8        29.86R
ONTARIO        PTCLDY    78  59  51 SW6       29.85R
SAN BERNARDINO CLEAR     84  57  39 SW6       29.86R
RIVERSIDE AP   CLEAR     79  61  53 W8        29.85R
MORENO VALLEY    N/A     83  64  51 CALM        N/A
MARCH ARB      CLEAR     77  60  55 W6        29.88R
HORSETHIEF CYN   N/A     78  56  47 N1        29.83R
PERRIS           N/A     82  62  50 W3        29.86R
HEMET EAST       N/A     86  53  32 CALM      29.87R
FRENCH VALLEY  FAIR      79  59  50 S6        29.87S
TEMECULA         N/A     78  63  58 S2        29.88S

$$

SAN BERNARDINO AND RIVERSIDE COUNTY MOUNTAINS

CITY           SKY/WX    TMP DP  RH WIND       PRES   REMARKS
BIG BEAR AP    CLEAR     66  41  39 CALM      30.29R
PINE COVE        N/A     74  39  28 NW3       29.77R

$$

SOUTHERN DESERT INCLUDING THE COACHELLA VALLEY

CITY           SKY/WX    TMP DP  RH WIND       PRES   REMARKS
PALM SPRINGS   CLEAR    104  46  14 NW21G30   29.66R HX 100
THOUSAND PALMS   N/A    101  48  16 NW13      29.62R HX  98
PALM DESERT      N/A    103  55  20 N10       30.29S HX 101
THERMAL        CLEAR    105  48  14 NW16G25   29.60R HX 101
BLYTHE         MOCLDY   111  32   6 SW14      29.62R HX 103
IMPERIAL AP    MOCLDY   100  57  23 W9        29.61R HX  99
EL CENTRO NAS  PTCLDY   103  47  15 W15       29.64R HX  99
YUMA AZ        PTCLDY    97  53  22 S5        29.64R
MEXICALI       CLEAR     95  55  26 SW5       29.63R

$$

UPPER DESERT

CITY           SKY/WX    TMP DP  RH WIND       PRES   REMARKS
VICTORVILLE AP PTCLDY    91  45  19 W9        29.95R
HESPERIA         N/A     88  54  30 W1        29.85R
PALMDALE       CLEAR     92  48  22 W9        29.94R
LANCASTER      CLEAR     90  49  24 W21       29.91R
EDWARDS AFB    PTCLDY    94  41  15 NW10      29.88R
DAGGETT        PTCLDY   100  33   9 W15       29.82R
29 PALMS N     CLEAR    101  30   8 W15       29.87R
NEEDLES        MOCLDY   112  21   4 W6        29.64R HX 103

$$

REGIONAL REPORTS

CITY           SKY/WX    TMP DP  RH WIND       PRES   REMARKS
SANTA BARBARA  CLEAR     65  61  87 SE7       29.82S
SANDBERG       CLEAR     83  46  27 N18G32    30.12R
LAS VEGAS NV   PTCLDY   107  18   4 CALM      29.77R HX  98
PHOENIX AZ     PTCLDY   105  41  11 SW3       29.68R HX 100
TIJUANA        MOCLDY    63  57  82 W6        29.89S
ENSENADA NW      N/A     66  32  28 E6        29.83S

$$

OFFSHORE ISLANDS

CITY           SKY/WX    TMP DP  RH WIND       PRES   REMARKS
CATALINA ARPT  CLEAR     71  56  58 NW10      29.90S
SAN NICOLAS IS MOCLDY    56  32  40 W25G32    29.86S FOG

$$

MARINE AND OFFSHORE BUOY REPORTS

STATION/POSITION SKY/WX   TEMP    WIND        PRES    VSBY  SWELL
                          AIR SEA DIR/SP/G                  HT/PER/DIR
                          (F)     (DEG/KT/KT) (MB)    (MI)  (FT/S/D)
TANNER BANKS               59 60  320/ 19/ 23 1011.8          3/230/14
S CLEMENTE BASIN              64  300/ 14/ 16 1011.5R         3/230/15
SAN NICOLAS IS.               60                N/A           3/190/14
SO. S. ROSA ISLA           58 57  310/ 23/ 27 1011.4F         3/180/14
W. S. BARBARA CH           58 57  310/ 23/ 31 1011.3F         3/210/15
M. S. BARBARA CH           61 62  260/ 16/ 19 1010.5S         2/140/14
S. MONICA BASIN            64 67  250/ 12/ 16 1010.3F         3/190/14
S PEDRO CHANNEL               64                N/A           2/190/14
CMP PENDLETON NS              65                N/A           3/220/15
OCEANSIDE OFFSHR              65                N/A           3/200/14
TORREY PINES OTR              66                N/A           3/230/15
SAN DIEGO BAY                 69              1011.5R
POINT LOMA SOUTH              67                N/A           3/200/15

$$





USA.gov is the U.S. government's official web portal to all federal, state and local government web resources and services.